Vorticity
nan nan nan nan nan nan nan nan nan nan nan nan nan nan nan nan nan nan nan nan nan nan
nan 6 6 7 11 6 9 13 14 8 8 8 9 8 8 8 9 8 6 10 9 nan
nan 7 5 8 8 6 11 15 10 3 9 13 9 7 6 9 9 6 7 10 10 nan
nan 8 7 7 8 8 3 7 9 8 6 10 9 11 8 6 11 10 7 7 9 nan
nan 9 7 7 5 9 9 9 5 9 6 7 7 11 10 7 9 10 8 9 7 nan
nan 7 9 10 7 7 8 7 9 10 9 8 9 10 8 7 7 9 11 12 9 nan
nan 9 8 10 12 8 9 8 8 8 10 9 7 7 10 11 8 8 8 9 11 nan
nan 16 9 11 12 11 8 9 9 8 9 10 8 7 8 9 9 8 8 10 8 nan
nan 9 22 10 10 8 9 10 10 9 8 7 11 11 10 6 8 10 9 8 10 nan
nan 12 10 9 10 10 9 8 9 9 9 10 8 13 16 10 4 9 10 11 8 nan
nan 16 11 9 8 8 11 10 8 9 10 9 11 15 11 10 7 7 8 11 13 nan
nan 13 13 14 12 11 10 11 10 9 10 8 10 11 9 7 7 8 10 9 14 nan
nan 9 12 13 15 14 12 13 13 12 13 11 12 12 5 6 10 11 11 9 3 nan
nan nan nan nan nan nan nan nan nan nan nan nan nan nan nan nan nan nan nan nan nan nan
CAPE
3107 2397 2375 1821 2132 1443 2217 469 2583 2817 2894 3437 2642 3364 3166 3090 2185 1750 2714 2543 3295 2705
2841 2677 1962 2352 3156 2838 385 1626 1687 2073 2471 3028 3589 2874 2610 2549 2579 3037 2822 2532 2721 2897
2423 2683 2737 3273 2056 1720 1889 1267 753 105 717 2996 2131 2433 3145 2837 2275 2422 2627 2235 2023 2756
2158 2369 2625 2500 2999 1742 2725 84 569 0 16 2541 2118 2396 2891 2940 2196 2354 2902 2838 2654 2674
2236 2103 2291 2437 2381 3148 3137 2449 1307 944 1870 2710 2773 2688 2310 2398 2229 2099 2015 1976 2270 2529
2483 2252 1910 2224 2188 3173 3001 2927 2553 2678 2944 2769 2937 2831 2615 2874 2991 1986 2515 2096 2669 2358
2260 2224 2051 2664 2228 2299 3018 2820 2733 2866 3088 3011 2955 2922 2785 2766 2528 2946 2584 2455 2355 2289
1678 2761 2296 2161 2101 2630 2924 2995 2886 2883 2784 2843 2787 2200 2658 2942 2827 2963 2758 2286 2454 2259
1154 1109 3676 3628 3261 3055 3222 2993 3048 2912 2839 2839 2199 1422 922 2065 2418 2507 2564 2365 2245 1907
2187 2810 3140 2722 3100 3076 2869 3103 3226 3135 2759 2812 2621 1684 321 790 2160 2014 2130 2585 2729 2046
2068 2306 2306 3137 3052 2852 3145 2894 3018 3047 3359 3096 2901 1082 187 135 1489 1751 2045 2137 2245 2602
1538 1682 1469 1716 1785 2201 2634 2566 2370 2823 2920 2758 2848 15 0 111 1479 1642 2038 1788 547 1561
715 777 1148 1248 1095 1705 1841 1911 2238 2358 2368 2259 2520 2 1 0 1459 1353 1582 38 0 0
491 389 560 662 1165 1498 1680 1882 1769 1510 1010 1652 1301 48 1 1 284 1685 829 65 0 0